Regional Weather Roundup
Issued by NWS Wakefield, VA

Home | Current Version | Previous Version | Graphics & Text | Print | Product List | Glossary On
Versions: 1 2 3 4 5 6 7 8 9 10 11 12 13 14 15 16 17 18 19 20 21 22 23 24 25 26 27 28
000
ASUS41 KAKQ 251615
RWRAKQ

REGIONAL WEATHER ROUNDUP
NATIONAL WEATHER SERVICE WAKEFIELD VA
1200 PM EDT WED MAY 25 2016

Note: "fair" indicates few or no clouds below 12,000 feet with no
significant weather and/or obstructions to visibility. * = Denotes
station may not report precipitation (e.g., rain,snow,etc.),
thunder or fog.

VAZ042-051-052>054-056-251700-
NORTHERN VIRGINIA

CITY           SKY/WX    TMP DP  RH WIND       PRES   REMARKS
WASH NATIONAL  CLOUDY    83  54  36 E3        30.15S
DULLES         PTSUNNY   83  51  33 W10       30.16S
FORT BELVOIR   FAIR      83  49  30 SW8       30.15S
QUANTICO       PTSUNNY   76  60  57 S7        30.16F
FREDERICKSBRG* FAIR      82  54  36 CALM      30.16S
STAFFORD*      FAIR      82  49  32 W5        30.21R
WARRENTON      FAIR      83  40  22 CALM      30.17S
CULPEPER*      FAIR      82  53  37 SW3       30.18S
MANASSAS*      SUNNY     82  50  32 W7        30.16S
LEESBURG*      FAIR      82  54  36 NW5       30.18R
WINCHESTER     FAIR      79  50  36 W5        30.18S
FRONT ROYAL*   FAIR      77  55  47 SW5       30.18S
LURAY*         FAIR      79  52  38 SW5       30.20S
$$

VAZ048-049-060>072-079>083-251700-
CENTRAL AND SOUTH CENTRAL VIRGINIA

CITY           SKY/WX    TMP DP  RH WIND       PRES   REMARKS
RICHMOND       CLOUDY    82  50  32 SW7       30.18S
CHESTERFIELD*  FAIR      84  52  32 W3        30.20S
PETERSBURG*    FAIR      84  53  33 SW5       30.19S
HANOVER        FAIR      82  52  35 VRB3      30.19S
TAPPAHANNOCK*  FAIR      83  53  35 SW5       30.18S
QUINTON*       FAIR      82  57  42 CALM      30.17F
CHARLOTTSVILLE FAIR      81  49  32 W9        30.19S
GORDONSVILLE*  FAIR      80  53  38 CALM      30.18S
ORANGE*        FAIR      81  50  34 CALM      30.20S
LOUISA*        FAIR      84  54  34 SW5       30.18S
BUMPASS*       FAIR      80  55  40 SE3       30.18S
FARMVILLE*     FAIR      83  53  35 SW3       30.19S
CREWE*         FAIR      82  53  37 W5        30.20S
FORT PICKETT*  NOT AVBL
CHASE CITY*    FAIR      80  50  34 CALM      30.21S
CLARKSVILLE*   FAIR      81  55  41 SE3       30.21S
SOUTH HILL*    FAIR      79  60  51 CALM      30.26F
LAWRENCEVILLE* FAIR      80  58  46 CALM      30.20S
EMPORIA*       FAIR      79  57  47 CALM      30.21S
$$

VAZ088>098-251700-
SOUTHEAST VIRGINIA

CITY           SKY/WX    TMP DP  RH WIND       PRES   REMARKS
NORFOLK        FAIR      82  57  42 CALM      30.17F
VIRGINIA BEACH FAIR      86  56  35 VRB3      30.17S
NORFOLK NAVAL  FAIR      82  55  39 VRB5      30.19F
WEST POINT*    FAIR      82  51  33 CALM      30.19S
SALUDA*        FAIR      81  55  40 NW6       30.17S
NEWPORT NEWS     N/A     83  56  39 MISG      30.18S
LANGLEY AFB    MOSUNNY   83  58  42 NE7       30.17F
FORT EUSTIS    FAIR      80  66  62 W3        30.17S
WILLIAMSBURG*  FAIR      84  63  48 CALM      30.19S
HR EXEC AP*    FAIR      82  59  44 SW5       30.20S
FRANKLIN*      FAIR      81  60  48 S5        30.19F
US460-WAKEFLD  FAIR      82  59  45 VRB5      30.18F
$$

VAZ020-022-025-037-045-251700-
WEST CENTRAL AND SOUTHWEST VIRGINIA

CITY           SKY/WX    TMP DP  RH WIND       PRES   REMARKS
STAUNTON*      FAIR      76  51  41 S5        30.24S
WAYNESBORO*    FAIR      76  49  38 SW6       30.23F
HOT SPRINGS VA FAIR      68  47  45 W9        30.31F
LYNCHBURG      FAIR      79  51  37 S8        30.23F
DANVILLE       FAIR      80  58  46 CALM      30.22S
SOUTH BOSTON*  FAIR      81  56  41 CALM      30.22R
MARTINSVILLE   FAIR      78  55  45 CALM      30.25F
ROANOKE        FAIR      78  53  41 CALM      30.25F
BLACKSBURG     FAIR      74  53  46 W5        30.31S
DUBLIN*        FAIR      78  50  37 S5        30.29S
MARION*        FAIR      75  54  47 W7        30.32F
HILLSVILLE*    FAIR      72  51  47 CALM      30.31R
RICHLANDS*     FAIR      74  47  38 W7        30.31S
WISE*          FAIR      73  45  35 SW12      30.31S
ABINGDON*      FAIR      77  54  44 W6        30.30S
$$

MDZ021>025-VAZ099-100-251700-
SOUTHERN MARYLAND AND THE DELMARVA PENINSULA

CITY           SKY/WX    TMP DP  RH WIND       PRES   REMARKS
PATUXENT RIVER PTSUNNY   83  54  36 N5        30.15S
BAY BRIDGE APT MOSUNNY   82  57  42 W5        30.14S
LEONARDTOWN    SUNNY     82  52  34 SW7       30.17S
DOVER          MOSUNNY   82  59  45 W10       30.11S
GEORGETOWN     SUNNY     84  47  27 MISG      30.14S
EASTON         MOSUNNY   82  63  51 NW7       30.18S
CAMBRIDGE      SUNNY     81  54  39 W5        30.14S
SALISBURY      SUNNY     84  48  28 NW8       30.14S
OCEAN CITY     SUNNY     79  58  48 SE6       30.14S
WALLOPS ISLAND FAIR      85  49  28 W8        30.16S
ACCOMACK*      FAIR      81  54  39 NW5       30.17S
$$

NCZ012>017-030>032-251700-
NORTH CENTRAL AND EASTERN NORTH CAROLINA

CITY           SKY/WX    TMP DP  RH WIND       PRES   REMARKS
ROANOKE RAPIDS FAIR      81  59  47 S5        30.20F
RALEIGH        MOSUNNY   83  58  42 W6        30.22F
ELIZABETH CITY SUNNY     82  60  47 SW13      30.19F
AHOSKIE*       SUNNY     80  61  53 CALM      30.20F
EDENTON*       SUNNY     81  70  67 W6        30.22S
CURRITUCK*     SUNNY     82  58  42 SW9       30.20S
KILL DEVIL HLS SUNNY     82  60  46 CALM      30.20S
MANTEO         SUNNY     80  61  52 NW5       30.21S
CAPE HATTERAS  SUNNY     77  63  61 W9        30.23S
TARBORO*       FAIR      82  62  49 SW6       30.22S
GOLDSBORO      SUNNY     83  61  46 VRB1      30.21S
WASHINGTON     SUNNY     82  60  47 SW6       30.22S
GREENVILLE     SUNNY     82  63  51 SW6       30.23S
NEW BERN       SUNNY     83  60  45 SW8       30.24S
WILMINGTON     MOSUNNY   83  59  44 SW8       30.23F
$$

VAZ048-251700-
ELSEWHERE

CITY           SKY/WX    TMP DP  RH WIND       PRES   REMARKS
HARRISBURG PA  PTSUNNY   81  54  39 NW7       30.13R
BALTIMORE      PTSUNNY   83  48  29 W8        30.13S
ANNAPOLIS      MOSUNNY   80  51  36 N6        30.13F
ANDREWS AFB    FAIR      82  50  33 W6        30.15S
PHILADELPHIA   PTSUNNY   82  43  25 S8        30.11S
HENDERSON NC   SUNNY     78  58  51 CALM      30.22S
GREENSBORO     MOSUNNY   82  51  34 CALM      30.23S
ROCKY MOUNT    SUNNY     83  58  42 VRB5      30.21F
$$

VAZ100-251700-
MARINE

STATION/POSITION TIME  TEMP    WIND        PRES    WAVE   SWELL
                       AIR SEA DIR/SP/G            HT/PER HT/PER
                 (UTC) (F)     (DEG/KT/KT) (MB)    (FT/S) (FT/S)
BRANDYWINE LGT   1500   70     240/  4/  4 1020.4F
CAPE MAY NJ      1500   70 65  250/  5/  5 1020.2F
LEWES DE         1500   73 60   20/  2/  2 1020.3F
15NM E FENWICK I 1550   64 58              1020.7S   2/ 5
OCEAN-CITY-INLET 1518   75 60  190/  4/  5 1021.0S
WACHAPREAGUE VA  1512   83 68  250/  2/  4 1021.0F
THOMAS POINT MD  1600   74 64  190/  7/  8 1021.8F
GOOSES REEF MD   1500   70 66  130/  4/  4 1021.8F   1
COVE POINT MD    1500   68     180/  5/  5 1021.5F
SOLOMONS ISLAND  1500   78 63  340/  3/  5   N/A
BISHOPS HEAD MD  1500   69 69  230/  7/  8 1021.3S
PINEY POINT MD   1500          320/  8/  8   N/A
POTOMAC MD       1500   67 66  300/  6/  6 1020.4F   0
CAMBRIDGE MD     1512   76 64  300/  3/  4 1020.0F
LEWISETTA VA     1500   74 67  340/  1/  3 1021.0S
RAPPAHANNOCK LGT 1500          190/  4/  5 1022.3F
STINGRAY PT      1500   70 67  170/  2/  4 1022.0F   0
YORK RVR RNG VA  1500   73     240/  5/  5 1021.4R
YORKTOWN VA      1500   73 65  330/  1/  1 1021.6S
JAMESTOWN VA     1500   71 68  310/  4/  4   N/A     0
DOMINION TERM VA 1500   71     290/  1/  2 1022.2R
KIPTOPEKE VA     1500      65  210/  3/  4   N/A
CHES BAY BRIDGE  1500   71 65  250/  7/  7 1022.0S
CAPE HENRY VA    1500   75     290/  6/  8   N/A
CHESAPEAKE LGHT  1500   72     280/ 11/ 12 1022.7S
WILLOUBY STN VA  1500   70     230/  8/  8 1023.0S
CAPE HENRY BUOY  1512      63                N/A     2/ 9
1ST LANDING BUOY 1500   68 65  270/  6/  6 1021.9F   1/ 4
64NM E OF VA BCH 1550   61 58  240/  6/  8 1022.1S   3/ 9   2/ 9
DUCK PIER NC     1500   73 61  240/ 11/ 14 1022.0S
44100 DUCK FRF   1524      63                N/A     2/ 8
44056 DUCK FRF   1511      62                N/A     2/10
OREGON INLET NC  1512   74 69  180/  6/  7 1022.9F
HATTERAS NC      1512   72 68  270/  7/ 10 1023.2F
DIAMOND SHLS NC  1550   69 70  260/  6/  6 1023.8S   3/ 9   2/ 9
CAPE LOOKOUT NC  1600   75     250/  7/  9 1023.8F
$$




USA.gov is the U.S. government's official web portal to all federal, state and local government web resources and services.